Regional Weather Roundup
Issued by NWS Little Rock, AR

Home | Current Version | Previous Version | Graphics & Text | Print | Product List | Glossary On
Versions: 1 2 3 4 5 6 7 8 9 10 11 12 13 14 15 16 17 18 19 20 21 22 23 24 25 26 27 28 29 30 31 32 33 34 35 36 37 38 39 40 41 42 43 44 45 46 47 48 49 50
000
ASUS44 KLZK 280905
RWRLZK

WEATHER ROUNDUP FOR ARKANSAS
NATIONAL WEATHER SERVICE LITTLE ROCK AR
400 AM CDT THU MAY 28 2015

NOTE: "FAIR" INDICATES FEW OR NO CLOUDS BELOW 12,000 FEET WITH NO
SIGNIFICANT WEATHER AND/OR OBSTRUCTIONS TO VISIBILITY.

ARZ001-003-010-029-281000-
NORTHWEST ARKANSAS

CITY           SKY/WX    TMP DP  RH WIND       PRES   REMARKS
FAYETTEVILLE   PTCLDY    61  61 100 S3        30.10S
FORT SMITH     PTCLDY    68  66  93 NE5       30.06S
HARRISON       MOCLDY    64  64 100 CALM      30.11S FOG
BENTONVILLE    PTCLDY   N/A N/A N/A SE3       30.09F
ROGERS         PTCLDY    65  64  97 CALM      30.11S
SILOAM SPGS    PTCLDY    64  57  77 E5        30.10S
$$

ARZ004-005-016-281000-
NORTH CENTRAL ARKANSAS

CITY           SKY/WX    TMP DP  RH WIND       PRES   REMARKS
BATESVILLE     CLOUDY    70  66  88 SE5       30.10F
FLIPPIN        MOCLDY    66  64  94 CALM      30.09R
MTN HOME       MOCLDY    67  66  97 SE6       30.10R FOG
$$

ARZ040-041-281000-
WEST CENTRAL ARKANSAS

CITY           SKY/WX    TMP DP  RH WIND       PRES   REMARKS
MENA           FAIR      64  64 100 CALM      30.12R
MOUNT IDA      CLEAR     68  66  93 CALM      30.08S
$$

ARZ009-017-025-026-028-281000-
NORTHEAST ARKANSAS

CITY           SKY/WX    TMP DP  RH WIND       PRES   REMARKS
CORNING        PTSUNNY   66  66 100 NE5       30.13S
JONESBORO      CLOUDY    65  65 100 CALM      30.11F
NEWPORT        MOCLDY    67  67 100 SE5       30.12F
WALNUT RIDGE   PTCLDY    66  64  94 CALM      30.11F
BLYTHEVILLE    CLEAR     66  66 100 S5        30.13S
$$

ARZ022-023-033-042-044-281000-
CENTRAL ARKANSAS

CITY           SKY/WX    TMP DP  RH WIND       PRES   REMARKS
LITTLE ROCK    CLOUDY    71  68  90 S5        30.09F
N LITTLE ROCK    N/A     71  71 100 S6        30.09F
JACKSONVILLE   CLOUDY    72  72 100 S6        30.09F
HOT SPRINGS    MOCLDY    70  67  90 E3        30.10S
RUSSELLVILLE   PTCLDY    71  69  93 E5        30.08S
CLINTON        CLOUDY    70  70 100 CALM      30.12S FOG
$$

ARZ036-281000-
EAST ARKANSAS

CITY           SKY/WX    TMP DP  RH WIND       PRES   REMARKS
$$

ARZ050-053-066-070-073-281000-
SOUTHWEST ARKANSAS

CITY           SKY/WX    TMP DP  RH WIND       PRES   REMARKS
CAMDEN         CLEAR     66  64  94 CALM      30.09S FOG
TEXARKANA      PTCLDY    69  68  96 SE5       30.09R
EL DORADO      CLEAR     66  65  96 CALM      30.09F
DE QUEEN       MOCLDY    68  67  96 E18       30.07R
$$

ARZ056-057-069-281000-
SOUTHEAST ARKANSAS

CITY           SKY/WX    TMP DP  RH WIND       PRES   REMARKS
PINE BLUFF     FOG       70  70 100 SE6       30.10S VSB 1/2
STUTTGART      MOCLDY    70  66  88 SE5       30.10F
MONTICELLO     FOG       67  67 100 CALM      30.09S VSB 1

$$





USA.gov is the U.S. government's official web portal to all federal, state and local government web resources and services.